Location: Liberec
(50.7830°N, 15.0500°E)
Time: 08:10:07
(UTC+02:00)

HTV-X1 - Pass Details

Date: 22 May 2026
Orbit: 368 x 378 km, 51.6° (Epoch: 26 May)

Event Time Altitude Azimuth Distance (km) Brightness Sun altitude
Rises 22:51:05 0° 280° (W) 2,219 ? -13.5°
Reaches altitude 10° 22:53:48 10° 253° (WSW) 1,367 ? -13.7°
Maximum altitude 22:55:29 14° 220° (SW) 1,157 ? -13.9°
Enters shadow 22:55:55 14° 210° (SSW) 1,172 ? -13.9°
